Wind_Speed
10 7 6 6 6 8 8 5 3 2 3 5 5 6 4 3 3 5 6 4 3 4 4 3 4 3 2 2 2 5 5 4 2 1 1 3 5 4 2 3 6 9 13 16 18 19 18 17 17 12 8 6 6 3 2 4 6 7 8 8 8 7 8 7 6 6 5 4 10 19 21 21 28 34 34 33 31 28 26 24 24 23 23 22 22 21 20 19 17 17 16 17 17 17 17 16 16
8 7 8 8 9 7 3 3 3 3 4 5 6 6 2 5 3 4 6 6 4 3 3 4 4 4 3 1 1 4 4 5 5 3 3 8 7 2 2 5 7 11 14 18 20 21 21 20 17 10 7 7 7 5 3 1 3 3 4 5 7 7 7 6 4 6 8 12 18 22 20 18 20 30 34 32 29 27 25 24 24 25 25 24 23 22 21 20 18 17 16 17 17 17 17 17 17
9 7 9 7 8 6 2 3 3 3 5 6 4 2 3 4 2 5 10 9 7 6 4 3 3 3 1 3 2 2 2 1 7 7 5 9 7 2 4 5 9 12 15 19 21 21 22 22 17 10 8 9 9 8 7 5 3 4 4 4 6 6 7 7 13 18 20 22 24 23 24 24 21 27 33 31 28 26 26 25 26 25 26 24 22 22 21 20 19 18 17 17 17 17 17 17 16
8 7 10 8 5 4 3 3 3 4 5 5 2 1 2 5 7 9 10 9 7 5 3 2 2 2 3 1 1 3 4 3 6 8 5 7 6 6 7 7 10 12 15 20 21 21 23 22 17 11 10 10 11 12 11 11 11 12 13 13 12 15 18 20 24 26 26 26 27 26 26 27 23 26 30 30 28 26 25 24 24 24 23 23 22 22 22 22 20 19 18 17 17 18 18 16 15
6 7 11 9 3 1 2 3 4 5 6 5 2 1 4 9 9 8 8 7 6 3 2 1 1 2 0 1 3 1 4 3 6 8 7 6 7 9 8 8 10 12 15 20 20 20 23 22 18 12 11 12 14 16 15 17 19 20 21 22 21 23 26 26 27 27 28 28 29 29 28 28 25 25 28 29 28 25 24 23 22 22 22 21 22 22 23 22 21 20 19 19 18 18 18 16 16
6 9 11 9 3 1 2 4 4 6 7 5 2 2 6 9 9 9 9 7 6 4 2 0 1 1 2 3 4 3 2 2 6 7 8 9 10 11 9 9 11 12 15 20 20 20 22 23 21 15 13 16 16 18 19 20 21 23 24 25 25 26 27 28 29 29 30 30 30 29 27 27 26 24 26 29 29 26 25 24 23 22 21 20 21 22 22 22 21 20 19 19 18 18 17 16 16
8 7 6 6 4 1 4 5 5 6 3 3 2 3 6 8 9 9 8 5 4 3 1 2 2 0 1 3 3 5 5 3 6 6 8 13 13 12 11 10 11 12 15 19 20 20 22 23 23 18 14 17 18 19 20 20 21 23 24 25 26 26 27 27 28 29 29 28 29 28 26 25 25 23 24 27 28 26 24 23 22 20 19 19 19 21 21 21 20 19 18 17 16 15 15 15 16
10 5 1 3 4 2 4 5 6 6 1 3 4 5 8 8 7 7 7 4 2 2 2 2 0 1 2 3 1 3 7 8 10 8 10 15 15 13 12 11 11 12 14 18 20 20 22 23 24 21 17 16 18 19 20 20 21 22 23 24 25 26 26 26 26 26 26 26 26 25 25 25 24 22 23 23 24 24 22 21 20 18 17 17 19 20 20 19 18 18 17 16 15 14 14 15 16
9 5 1 3 4 4 5 5 7 7 3 4 5 6 8 8 6 7 6 4 4 3 4 3 1 1 1 2 2 3 6 9 11 10 11 15 15 14 13 12 12 13 14 17 20 21 22 23 24 24 20 17 17 20 21 20 21 22 22 22 23 24 25 25 25 24 24 24 24 24 23 23 22 21 21 20 21 21 20 19 18 17 16 16 17 18 18 18 17 17 17 16 16 15 15 16 16
6 4 2 2 4 5 6 5 7 6 3 5 5 6 7 7 7 7 6 5 4 4 4 3 1 2 2 1 2 3 8 10 10 10 12 15 15 14 14 13 12 13 14 16 19 21 22 22 24 24 21 20 18 18 19 19 19 20 20 21 21 22 22 22 22 22 23 22 22 22 22 21 20 19 18 18 19 18 18 18 18 17 17 17 17 17 18 17 17 17 17 16 16 15 15 16 16
3 3 2 3 4 5 6 5 6 3 5 4 5 7 6 6 6 6 7 5 3 3 4 1 1 2 3 1 2 4 11 11 10 12 13 15 15 14 14 14 13 12 14 16 18 20 22 22 23 23 21 21 20 18 17 17 16 17 18 19 19 20 20 20 20 20 21 21 20 20 20 19 18 18 17 17 18 17 17 17 16 16 17 17 17 17 18 18 17 16 15 15 15 14 15 15 15
3 3 3 3 5 5 6 7 5 1 6 4 5 6 5 6 6 6 7 5 4 3 4 5 1 0 3 2 2 6 11 11 12 13 12 14 15 15 15 14 14 13 13 15 17 18 21 22 23 23 21 21 23 21 19 17 16 17 17 18 19 19 20 20 20 20 20 20 19 20 19 18 18 17 17 17 17 17 17 16 16 16 16 16 17 18 18 18 17 15 14 13 13 13 13 14 14
4 4 3 5 5 6 8 7 5 2 2 5 7 7 5 6 7 6 5 4 6 5 4 6 2 1 2 1 3 6 8 11 13 12 11 13 14 15 15 15 15 13 13 14 15 17 20 21 22 23 20 20 23 23 22 21 19 19 18 18 19 19 19 19 19 19 19 19 19 19 18 18 18 18 17 18 18 17 17 17 16 16 16 16 16 17 17 17 16 15 14 13 12 12 12 13 14
3 3 4 5 4 7 8 6 5 4 4 3 8 8 6 5 6 5 5 6 6 4 2 5 4 1 2 2 3 4 8 14 15 12 12 13 13 14 14 15 16 14 13 13 14 16 18 20 21 22 21 20 22 23 24 23 22 21 21 19 19 19 19 19 19 19 19 18 19 19 18 18 18 18 17 17 17 17 17 17 17 16 17 17 16 16 16 16 15 14 12 12 13 13 13 14 15
3 4 4 4 5 6 6 6 5 5 3 6 9 8 7 4 4 4 3 5 3 3 4 3 3 2 1 2 2 4 13 18 17 14 11 12 12 12 13 13 15 15 14 13 14 15 17 19 19 21 21 20 21 22 23 24 23 22 22 20 19 19 19 19 19 19 19 19 18 18 18 18 18 17 16 16 18 19 18 18 17 16 16 17 16 16 16 15 14 13 12 12 13 13 15 15 15
2 3 3 4 5 6 6 7 3 2 2 7 7 7 8 4 2 2 1 1 3 4 3 2 4 1 2 0 3 11 20 19 15 15 12 10 11 10 11 12 14 15 15 14 14 14 16 17 18 20 20 20 20 21 22 22 22 21 21 20 19 19 18 19 19 20 20 19 18 17 17 17 17 16 15 16 18 19 19 18 16 15 15 15 15 16 15 15 15 14 13 13 13 14 16 16 15
2 2 4 4 5 6 6 4 1 1 3 6 6 7 8 6 4 2 2 1 2 5 5 4 6 1 2 5 12 18 21 18 14 16 15 11 10 10 11 12 13 14 16 16 14 15 17 18 18 18 19 20 19 20 21 20 20 20 19 19 19 18 18 18 20 21 20 19 18 16 16 16 16 15 15 16 16 16 18 18 16 15 15 15 15 15 15 15 15 15 14 14 13 14 17 17 16
2 3 4 4 6 5 4 4 3 2 3 5 5 6 6 5 7 3 2 4 6 6 6 6 7 4 8 13 17 19 19 17 15 17 17 13 11 12 12 13 13 14 16 17 17 18 19 19 19 18 18 19 18 19 20 19 18 18 17 17 18 18 19 19 20 20 20 20 19 17 16 15 14 14 15 16 16 16 16 16 15 15 15 15 15 14 15 15 15 15 14 14 14 15 15 15 15
4 3 4 6 5 2 4 5 5 4 3 3 3 4 6 4 6 5 3 7 7 8 7 7 9 6 11 13 16 18 17 16 16 17 17 15 14 14 14 15 15 15 17 19 21 20 20 21 21 20 19 19 18 16 18 18 18 18 16 15 15 17 18 19 20 20 20 20 20 19 19 17 16 16 16 15 17 18 18 17 15 15 14 14 14 14 15 14 14 14 14 14 15 16 15 14 14
5 4 5 6 3 4 3 5 4 3 3 0 2 2 4 4 5 5 4 6 7 9 8 8 11 10 11 12 14 17 16 16 16 17 17 17 16 16 16 16 18 18 18 20 22 22 22 23 22 22 21 20 19 16 16 17 18 18 16 15 14 15 17 18 19 20 20 20 19 19 20 20 19 19 18 17 18 19 20 20 18 17 16 15 16 16 15 14 13 14 14 14 14 14 14 14 14
4 4 6 8 4 5 3 6 4 2 2 2 1 2 5 5 3 5 5 6 7 7 8 9 11 12 13 13 14 17 16 15 16 17 17 17 17 17 16 17 18 19 19 19 21 24 24 24 24 23 23 22 21 18 16 17 17 17 16 16 16 16 16 17 18 20 20 20 18 18 18 18 20 21 22 21 21 21 21 21 20 20 18 17 17 16 14 13 13 14 14 14 14 14 13 12 11
3 6 9 12 8 6 3 6 3 2 1 2 2 4 4 2 3 5 7 8 7 2 2 1 2 4 12 15 14 15 14 14 15 17 18 18 19 18 17 16 17 18 20 21 22 24 25 26 25 25 25 24 22 19 17 17 17 17 17 17 17 17 17 17 18 20 21 20 17 16 16 17 20 21 23 23 21 21 22 21 20 19 16 15 15 14 14 14 14 15 14 14 14 14 13 12 10
2 7 10 12 8 5 2 4 2 1 1 3 4 3 2 2 4 6 9 11 9 3 2 4 4 4 12 17 14 14 13 13 15 18 20 20 20 20 19 18 18 19 21 22 22 23 25 26 27 26 26 25 24 20 17 17 17 15 16 17 17 17 17 17 18 19 19 20 18 15 15 16 18 20 22 21 18 20 22 20 19 17 14 13 13 14 15 15 15 16 15 14 14 13 12 11 11
5 7 11 11 5 4 4 3 2 1 3 4 3 3 3 7 7 6 10 12 11 8 3 5 3 7 14 14 13 14 13 14 16 20 21 21 21 21 21 20 19 19 20 21 21 23 25 26 27 27 27 26 25 21 18 18 17 15 17 18 17 17 17 17 17 17 19 19 17 15 15 16 17 19 20 19 17 19 20 17 16 15 14 13 13 16 16 15 16 16 15 14 13 13 12 11 11
8 9 10 7 3 5 3 1 3 3 3 3 3 5 7 9 8 9 13 11 9 10 7 5 5 6 10 11 13 12 11 14 16 18 20 20 20 21 21 21 21 20 21 21 22 23 25 26 27 28 28 27 26 24 21 20 19 18 20 21 19 18 18 17 17 19 19 19 17 15 16 17 18 19 20 19 19 20 19 18 17 17 16 16 15 17 17 16 16 15 14 14 14 13 13 12 12
4 7 8 7 7 8 5 5 6 5 4 3 5 9 11 10 10 12 14 13 11 11 11 8 7 7 8 9 11 12 11 13 15 17 20 20 19 21 23 22 22 23 22 22 22 23 24 26 27 28 28 28 28 27 24 22 22 23 23 24 22 21 20 19 21 20 18 18 18 17 16 16 17 19 20 21 21 21 20 19 19 19 19 18 17 17 17 16 16 16 15 15 15 14 13 13 12
6 9 10 11 12 10 6 8 9 8 6 7 9 10 11 9 7 9 9 8 10 11 12 11 9 8 9 8 9 10 11 13 17 18 17 18 19 21 25 23 22 23 22 22 24 24 24 26 28 28 28 29 29 28 26 23 24 24 23 24 25 23 23 23 22 20 18 18 20 21 18 16 17 19 20 21 22 22 22 20 20 20 20 19 19 19 17 15 16 16 15 15 14 14 13 12 12
7 10 11 11 13 13 11 11 10 7 6 8 11 12 12 8 7 12 11 4 5 8 9 9 9 8 8 9 9 8 9 14 19 18 17 19 21 23 25 26 26 24 24 25 24 25 26 27 29 29 29 29 29 28 27 25 25 25 24 25 26 25 25 24 22 20 19 19 20 22 22 19 19 20 22 23 23 22 22 22 22 21 21 21 20 21 19 17 17 17 16 15 14 14 13 12 11
7 9 10 12 13 13 13 13 10 8 6 4 5 10 12 10 13 20 14 6 6 7 7 8 8 7 7 8 8 7 8 13 16 17 19 22 23 24 25 28 29 25 25 25 24 25 26 28 29 29 29 30 29 29 28 27 25 25 25 26 26 26 26 24 22 21 21 21 22 23 24 23 22 22 24 24 24 23 24 24 23 22 22 22 21 21 20 19 18 18 17 16 15 14 14 12 11
7 8 8 9 9 9 12 12 11 9 5 6 2 7 7 7 14 18 10 9 8 8 7 8 7 7 7 8 8 8 9 10 13 17 21 23 23 25 25 26 28 27 24 25 26 27 27 28 29 30 30 31 30 29 28 27 26 26 27 26 27 28 27 24 23 22 23 25 24 25 26 26 24 25 26 26 25 24 25 24 23 23 23 22 21 20 19 18 18 18 17 16 15 14 14 13 12
7 8 6 5 5 6 8 6 10 9 4 7 5 6 7 6 8 4 6 9 9 8 8 8 8 8 8 7 7 8 9 11 15 19 21 23 24 25 26 26 27 28 26 27 29 29 28 28 29 30 31 32 31 30 28 28 28 28 28 28 29 29 27 26 25 25 26 28 27 27 28 28 27 26 26 27 26 26 27 26 24 24 23 22 20 19 18 18 18 18 17 17 15 12 13 12 11
5 5 4 4 5 6 6 5 11 9 4 6 6 4 8 6 2 4 6 6 7 7 8 8 9 9 9 8 8 8 8 12 17 21 23 25 25 25 27 27 29 30 29 29 30 29 29 30 29 30 31 32 31 30 28 28 28 28 28 29 29 29 28 28 27 27 28 29 29 28 28 29 30 28 28 28 28 27 27 27 25 24 23 22 21 20 19 18 19 19 17 17 15 13 13 12 11
4 5 5 5 5 7 5 5 9 8 4 8 9 6 7 2 2 4 5 6 7 8 8 8 9 8 9 9 9 9 8 11 14 18 25 27 26 27 28 29 30 31 31 30 30 31 31 31 30 30 31 32 31 29 28 27 28 28 28 29 29 29 29 29 29 30 29 29 29 28 28 29 30 30 29 29 28 27 26 26 26 25 24 23 23 23 22 20 20 20 18 17 16 16 15 14 13
3 5 5 6 7 7 4 2 5 6 4 7 10 10 11 7 5 5 6 8 9 10 10 10 10 8 8 8 9 10 10 11 11 17 27 29 29 30 29 29 30 31 31 30 30 32 31 30 30 30 30 30 30 29 28 28 27 27 27 29 29 29 30 30 30 31 30 30 29 28 28 29 30 31 30 30 29 28 27 27 27 27 26 26 26 25 24 22 21 21 20 19 17 17 17 17 15
5 5 4 5 6 6 6 3 2 7 6 7 9 11 14 13 11 12 11 11 11 12 11 11 11 11 10 9 10 10 11 13 13 19 28 29 29 29 27 27 28 29 29 28 28 29 29 29 29 29 30 30 29 29 28 27 27 26 27 28 28 28 29 30 31 31 31 31 30 30 29 30 32 32 32 31 31 30 29 29 29 28 27 27 27 26 26 24 23 23 22 21 19 17 17 17 16
10 8 7 7 6 7 9 8 3 7 6 8 9 12 15 14 12 13 12 11 12 13 12 10 10 11 10 10 10 9 11 13 14 20 25 27 26 25 24 23 25 25 25 25 25 26 27 27 28 29 30 31 30 30 29 28 27 26 27 27 28 29 30 31 31 31 31 31 31 30 30 30 32 33 32 32 32 31 30 30 29 28 27 28 28 27 27 26 25 24 24 23 20 18 16 16 16
11 9 8 8 8 9 9 10 6 4 3 8 9 11 17 16 14 13 13 12 13 14 13 12 11 10 9 11 11 11 12 7 7 15 20 23 23 23 23 21 22 22 22 23 24 25 26 26 28 30 31 31 31 32 31 30 30 28 27 28 29 29 30 31 31 31 31 31 31 31 30 31 32 33 32 32 31 31 31 30 30 28 28 28 28 27 27 26 26 26 25 23 21 20 18 17 17
9 7 7 8 8 9 10 11 7 2 2 7 7 11 19 18 14 14 12 13 14 14 13 14 14 11 10 11 11 12 9 1 6 10 15 19 21 21 21 20 21 22 21 23 24 25 26 25 26 29 30 30 31 32 31 30 30 28 27 27 27 27 29 31 31 32 31 30 30 30 30 30 31 32 32 32 31 31 31 31 31 29 29 29 28 27 25 25 26 27 26 24 22 22 21 21 21
7 6 6 7 7 7 9 10 7 2 2 6 7 10 18 19 14 15 15 16 16 14 14 14 12 11 10 11 10 9 6 6 7 8 11 15 19 19 19 18 19 20 20 22 23 23 24 24 24 26 28 29 28 29 30 29 27 25 24 23 24 25 27 29 30 30 30 30 30 30 30 30 32 33 33 33 33 33 32 32 32 30 30 30 30 29 27 26 27 27 28 27 24 22 20 21 24
6 5 5 6 6 6 6 4 3 3 3 6 8 9 16 18 14 15 17 17 16 13 13 13 10 10 11 10 5 1 5 9 7 7 8 10 15 16 15 15 16 17 18 20 22 23 24 25 24 24 26 27 26 27 28 27 24 23 21 20 22 23 24 25 26 27 29 30 30 31 31 32 33 34 34 34 35 35 34 33 32 32 32 32 32 31 30 30 29 29 29 28 26 24 21 22 25
6 7 7 8 8 8 8 6 6 7 7 8 8 9 12 11 9 11 9 8 9 10 11 10 9 10 11 7 2 7 7 7 7 8 8 8 11 13 14 15 16 18 20 21 23 25 25 25 25 24 26 27 28 27 28 26 24 24 22 19 20 20 19 21 24 26 28 29 31 33 33 34 35 35 35 35 36 36 35 34 34 33 33 33 33 33 33 32 31 31 30 28 28 27 24 23 24
6 7 8 10 10 10 10 8 7 6 6 5 3 5 8 7 7 9 7 5 6 7 7 7 8 7 5 3 6 7 6 5 4 5 8 8 9 13 15 16 17 19 20 21 23 24 24 25 25 25 26 28 28 28 29 28 28 28 28 25 23 21 21 23 27 29 30 31 33 33 33 34 36 36 36 36 36 37 37 36 36 36 35 35 36 35 34 34 33 33 32 29 29 27 24 22 24
5 4 4 7 7 7 6 6 5 4 5 3 0 2 8 10 10 9 9 10 10 6 6 8 7 3 3 6 6 6 6 6 6 6 8 8 9 12 14 17 20 20 21 21 21 23 23 23 24 26 26 27 28 28 29 30 30 31 31 30 28 27 26 27 29 29 30 32 32 32 33 34 36 36 37 37 38 39 39 39 38 38 38 37 37 36 35 35 34 34 33 31 30 27 24 23 25
4 1 3 5 5 6 6 5 5 4 6 7 6 5 7 11 11 6 5 8 7 6 7 7 4 5 8 6 6 6 6 6 5 5 7 8 9 12 15 18 20 19 19 19 19 21 22 22 23 25 25 25 26 28 29 30 31 30 30 29 28 29 28 26 26 26 27 29 30 31 33 34 36 37 38 38 39 40 40 40 40 39 39 38 38 38 37 36 35 34 33 33 31 29 27 26 25
2 2 3 4 3 5 5 4 5 4 5 9 8 6 5 9 12 6 3 7 8 7 7 5 6 7 7 6 6 6 5 5 5 5 6 7 9 12 14 15 16 16 16 17 18 18 20 21 21 23 24 23 24 25 28 30 30 29 29 28 27 27 25 22 22 24 25 26 28 30 31 33 35 36 37 38 38 39 39 39 39 38 38 38 39 38 37 36 35 35 35 35 34 32 30 28 24
1 3 3 3 2 5 4 4 5 2 6 11 7 5 5 8 12 8 3 7 8 4 3 6 7 6 6 6 6 5 5 4 3 4 5 4 6 9 10 11 12 13 14 16 17 17 18 20 20 22 23 22 22 22 25 27 27 26 27 27 27 25 23 22 21 23 25 26 27 28 29 31 32 34 35 36 37 38 38 38 38 38 38 37 38 38 37 36 36 36 36 36 35 33 31 29 25
2 3 4 4 4 5 4 5 3 2 7 12 8 8 7 6 10 7 2 4 3 3 5 5 5 6 6 6 6 6 5 4 4 5 4 4 5 6 7 9 11 13 14 15 16 16 17 19 19 21 21 21 21 21 23 25 25 26 26 26 27 26 24 23 22 23 25 26 26 27 28 28 30 32 34 35 36 37 37 38 38 38 37 37 37 38 38 37 37 36 36 35 35 34 32 31 29
2 1 2 4 4 4 4 4 4 4 7 8 7 10 11 8 7 3 3 2 1 4 6 7 6 6 6 6 6 6 6 6 6 6 5 5 6 6 7 8 9 12 14 15 16 16 17 17 18 19 20 20 20 21 22 24 25 26 27 26 26 26 25 25 25 25 25 26 26 26 26 28 29 31 33 35 36 36 37 37 37 37 37 38 38 39 39 38 38 37 36 36 35 35 34 31 31
1 2 2 3 3 2 4 4 4 6 7 7 6 6 8 10 9 6 5 3 2 4 6 9 9 8 7 7 7 7 6 6 6 6 6 6 6 6 8 10 11 13 15 15 16 16 16 16 17 17 19 20 21 21 22 24 25 26 27 26 25 25 26 27 27 26 26 26 26 27 28 29 30 31 33 36 37 37 37 37 38 40 40 41 41 41 40 39 39 38 37 37 36 35 35 33 33
4 4 3 3 3 3 4 5 4 6 7 7 4 2 4 7 7 8 10 8 3 4 3 7 8 8 8 7 7 7 6 6 6 6 6 6 6 7 9 12 13 15 15 15 15 15 15 15 17 18 20 22 23 23 23 24 26 26 27 27 26 26 26 27 28 28 27 27 28 29 31 32 32 34 35 36 36 36 37 38 39 40 42 42 42 41 41 40 39 39 38 37 36 36 35 35 34
5 5 3 4 3 3 4 3 4 5 5 4 2 1 2 3 2 4 5 2 2 2 3 6 7 7 7 7 7 7 7 6 6 6 6 6 7 9 11 13 14 15 15 14 14 14 15 16 18 20 22 23 25 26 25 26 27 27 27 27 27 27 27 28 29 29 29 29 29 30 31 32 34 35 34 34 35 36 37 38 38 40 41 42 42 41 41 41 40 39 38 37 36 36 35 35 35
3 3 3 4 3 2 4 5 6 6 6 6 4 3 5 4 4 8 5 4 4 3 5 6 6 6 7 6 7 6 6 6 6 7 6 6 8 10 11 12 14 14 13 13 13 15 17 19 20 22 23 24 25 26 27 27 27 27 28 28 28 28 28 29 30 30 30 30 30 30 31 32 33 33 33 34 34 35 37 37 39 40 40 41 42 42 42 42 41 39 38 37 36 36 35 36 36
1 2 3 3 1 1 3 6 7 6 7 7 6 6 7 7 8 10 5 4 4 3 5 4 4 6 6 5 5 6 6 6 6 6 6 7 7 8 9 11 13 13 12 12 14 15 17 19 19 21 22 23 24 26 27 27 27 26 27 28 28 29 29 30 30 29 29 29 29 29 29 30 31 32 32 33 33 35 36 38 39 39 39 40 41 41 41 41 41 40 38 37 37 37 36 36 36
1 2 1 2 2 1 1 4 4 5 7 6 6 8 8 7 6 4 2 4 4 3 4 3 3 6 4 3 4 7 6 5 4 4 5 5 4 5 7 9 10 10 9 10 13 14 16 17 19 20 21 22 24 25 26 26 26 26 27 27 28 29 29 29 29 28 27 27 29 30 30 30 30 31 31 31 32 34 36 37 38 39 39 39 39 40 40 40 40 39 39 38 38 37 36 35 35
1 1 0 1 1 2 2 2 2 4 6 5 7 9 8 7 6 6 6 4 6 5 4 3 5 6 2 3 6 7 6 5 4 5 5 4 3 5 8 9 8 7 6 8 10 12 14 15 17 18 19 20 21 22 23 24 25 26 26 26 27 28 28 28 28 28 28 28 29 30 31 31 31 30 30 31 33 34 36 37 38 38 38 38 39 39 40 41 40 40 39 38 37 37 37 36 35
2 1 1 1 1 2 2 1 1 3 5 5 7 8 8 7 5 6 7 2 5 4 4 6 5 5 5 6 7 6 6 6 6 6 5 3 3 5 8 9 8 4 3 5 7 10 12 13 14 15 17 17 17 19 21 22 23 24 25 25 26 26 27 28 29 29 30 31 31 31 32 32 31 31 31 32 34 34 35 36 37 37 37 37 39 39 40 41 41 41 40 39 37 37 38 37 36
2 3 4 3 2 1 1 2 3 3 4 6 6 7 9 6 2 2 2 4 4 2 4 4 4 7 6 5 6 5 6 6 5 5 4 2 5 9 11 10 7 3 1 4 6 7 9 11 12 13 15 16 16 18 19 21 22 23 24 25 26 26 27 29 30 30 31 33 33 33 33 32 32 32 32 33 34 35 35 36 36 37 37 38 39 39 40 41 41 41 40 39 37 37 38 37 35
5 5 6 7 6 4 4 5 5 4 4 6 6 8 11 6 1 3 3 4 3 3 6 6 7 7 5 2 5 6 6 5 5 6 7 6 6 11 15 15 12 9 6 5 6 7 8 9 10 11 13 14 15 16 17 19 20 22 24 25 26 27 27 29 30 31 33 34 34 34 33 32 33 33 33 33 34 35 35 35 36 37 38 38 39 39 39 40 41 41 41 39 37 37 38 37 36
Wind_Direction
308 302 308 272 247 261 247 214 237 213 222 263 245 248 237 157 135 160 143 130 142 61 50 66 48 39 50 34 79 79 51 15 14 187 202 128 155 190 165 83 68 66 65 70 69 67 64 59 59 43 24 42 57 83 136 189 211 221 234 237 235 244 238 237 242 243 239 206 171 165 162 153 141 133 129 128 128 125 124 122 118 115 113 113 109 108 107 103 101 98 98 97 96 95 95 96 97
304 288 286 260 244 256 235 190 244 222 208 244 246 247 185 121 188 189 120 104 96 89 71 63 61 67 72 11 185 99 59 34 63 88 100 138 148 159 145 97 83 75 73 76 73 69 65 60 58 43 38 50 58 73 80 139 226 236 245 236 228 232 231 236 209 175 156 148 149 147 142 134 127 126 125 124 123 118 114 111 108 108 107 109 110 110 108 106 104 101 100 99 98 97 96 96 98
298 275 268 246 228 240 245 200 236 250 226 238 244 232 149 137 121 76 83 89 93 109 100 83 95 71 327 226 217 89 114 88 97 100 119 157 158 165 162 109 91 82 79 80 75 72 69 64 60 55 64 65 65 72 73 72 82 99 113 148 176 164 139 136 131 133 131 130 136 136 132 127 123 121 121 120 117 113 110 107 106 106 107 110 112 112 111 109 107 106 104 102 101 99 98 100 99
287 256 255 244 209 219 242 213 230 260 253 257 250 152 118 99 87 79 82 88 93 110 117 136 135 38 302 212 41 62 106 123 118 112 126 166 165 166 159 117 101 91 84 83 78 75 73 70 67 65 74 80 81 79 77 85 98 105 110 119 127 123 116 119 122 125 126 127 130 131 130 126 122 116 115 114 112 112 111 109 108 108 110 113 115 114 112 111 110 109 108 106 103 101 100 101 100
275 250 253 248 224 212 243 224 219 240 246 269 299 99 88 99 106 101 95 94 90 77 81 160 128 64 347 48 1 37 111 125 119 102 106 141 163 159 150 125 108 97 88 85 82 80 80 78 75 72 80 89 91 90 87 91 99 104 109 112 113 115 115 116 117 118 122 124 125 125 124 123 121 115 113 112 111 112 111 110 110 111 113 114 115 114 113 113 113 113 112 111 108 105 103 101 106
264 251 244 242 263 327 268 241 221 231 239 265 295 92 86 107 118 110 106 95 85 66 25 4 70 96 134 74 41 53 55 136 115 92 115 143 166 158 146 133 114 102 94 91 89 86 86 85 83 79 85 93 93 94 94 95 99 103 107 108 108 111 111 112 113 113 115 117 118 119 116 118 120 116 114 114 114 112 111 113 113 112 113 113 113 114 115 116 117 119 117 116 113 112 110 110 118
262 255 222 225 261 267 248 253 242 246 247 307 313 117 99 106 113 118 125 106 96 100 17 13 39 286 124 119 84 64 29 50 119 110 135 149 160 155 145 139 120 109 101 99 97 92 92 91 89 86 88 94 94 96 97 100 102 104 106 108 108 109 108 108 111 110 111 114 117 119 116 116 117 114 113 115 116 115 113 115 115 113 112 112 112 113 114 115 117 119 119 119 118 119 122 126 128
258 260 197 226 243 214 233 254 253 258 274 48 30 86 112 120 128 140 147 136 138 144 140 95 337 269 123 163 137 84 56 74 126 130 140 151 158 154 147 144 127 117 108 105 102 97 98 96 94 93 93 94 97 99 99 103 104 105 106 107 106 106 106 106 110 112 114 119 122 124 126 126 122 119 118 116 117 120 120 117 115 114 114 112 113 113 114 116 114 114 117 117 119 120 123 128 128
239 235 248 248 244 240 235 245 251 257 220 135 91 92 119 137 151 147 146 122 112 121 125 122 188 187 122 181 104 115 101 104 132 135 148 157 161 156 150 147 135 126 115 110 106 103 102 101 99 99 99 96 97 101 102 105 105 106 107 107 108 108 108 108 111 113 115 118 122 125 128 129 126 124 123 121 121 124 125 121 119 118 116 113 112 115 117 118 116 117 120 121 124 123 122 127 127
221 210 257 263 243 256 247 239 247 244 172 136 125 134 139 148 159 151 147 115 118 135 94 59 237 227 292 149 107 126 132 135 137 132 153 162 163 160 153 150 141 134 123 117 112 109 109 107 105 105 108 107 103 103 105 108 107 107 108 108 110 110 111 111 111 112 114 116 120 124 124 124 122 121 119 118 118 119 121 122 124 121 118 115 113 115 115 112 113 117 121 123 123 124 126 129 128
231 202 232 274 249 252 256 247 246 219 118 110 120 138 151 156 163 164 154 125 135 149 104 91 240 230 258 139 90 114 136 149 145 142 162 165 166 165 157 154 147 142 134 126 121 117 116 114 112 111 115 118 113 108 107 108 109 109 109 109 109 110 111 112 113 114 117 120 121 122 123 122 120 119 118 118 117 117 120 121 122 120 118 118 117 115 113 111 111 114 118 117 115 120 127 132 131
256 232 207 240 254 252 259 261 271 91 114 157 146 138 158 160 169 177 164 141 154 175 160 180 176 329 221 199 111 130 147 163 150 151 169 166 170 171 162 158 153 151 145 137 132 126 124 123 121 118 119 124 121 115 114 112 111 112 113 113 113 112 113 113 115 118 120 121 121 121 124 123 122 122 121 120 121 122 122 123 122 120 119 118 119 116 114 113 114 118 122 121 121 127 130 132 132
248 260 247 240 253 262 265 272 302 20 167 205 160 147 160 164 182 181 172 162 162 188 186 165 124 10 228 139 112 144 163 173 157 155 169 167 174 175 168 165 161 159 156 149 143 137 134 132 129 126 124 128 127 122 121 118 116 116 116 115 115 115 115 116 117 119 120 121 122 123 124 123 124 125 125 124 123 126 125 127 125 121 121 119 119 118 118 121 123 125 131 133 132 133 133 133 135
256 269 279 271 269 264 271 277 292 303 274 190 136 142 157 176 197 178 177 192 178 178 141 132 127 107 234 137 145 182 172 172 165 161 168 169 174 177 176 174 171 170 169 163 156 149 145 142 137 135 132 132 133 129 127 123 122 121 119 118 117 117 118 120 122 122 120 122 124 124 124 125 129 127 126 127 128 131 129 130 127 123 125 124 123 125 128 129 129 130 130 131 133 136 137 140 144
280 288 287 279 279 270 276 267 269 291 318 96 121 143 157 175 200 172 182 206 170 114 90 101 156 146 232 191 184 161 157 165 163 162 174 176 174 176 178 181 184 181 179 177 170 163 157 153 147 144 141 139 138 136 135 131 130 128 126 125 122 122 124 127 129 130 129 129 128 126 127 127 133 131 126 130 138 141 136 131 128 128 130 130 130 129 132 131 129 133 133 134 137 140 143 146 149
250 294 286 261 269 269 270 258 242 270 50 97 129 152 162 158 171 181 79 50 113 134 156 173 191 204 334 356 110 129 148 160 160 163 177 176 172 176 179 188 194 190 188 185 177 175 171 165 159 155 150 149 146 143 145 144 142 140 139 138 137 137 139 140 137 136 136 135 131 128 129 126 129 130 128 134 142 146 139 131 130 132 134 132 130 126 126 128 127 131 134 134 133 139 148 153 153
240 258 265 262 259 258 273 267 196 181 112 121 156 165 180 167 162 192 68 319 207 172 197 190 183 210 24 110 121 131 146 158 157 168 175 167 170 179 185 195 200 198 197 189 182 186 184 178 173 168 159 159 159 154 156 158 156 154 154 152 154 153 150 149 147 146 144 140 136 133 134 131 130 129 131 137 139 141 138 133 134 134 132 128 123 121 121 121 120 121 123 123 124 139 152 155 153
231 229 242 248 252 257 324 353 25 32 101 130 168 181 215 191 166 167 121 226 237 204 204 197 187 123 94 117 127 135 147 158 162 176 180 173 178 182 183 192 197 202 204 195 192 194 190 187 186 182 172 171 174 168 167 169 168 169 169 167 168 166 160 159 159 159 156 151 147 142 137 135 137 136 137 140 136 137 137 136 137 135 133 128 123 123 125 124 122 120 120 122 127 140 151 152 149
220 244 247 247 263 293 14 18 32 31 63 105 153 197 240 226 152 147 201 221 220 219 216 204 198 145 116 130 136 143 153 163 173 183 185 183 188 187 181 187 192 197 205 203 202 203 198 195 196 195 188 184 184 180 179 180 180 182 184 185 183 178 173 171 168 166 165 161 158 154 149 147 151 148 144 144 143 144 143 142 139 134 130 127 129 130 128 128 128 127 129 131 134 142 148 148 146
219 237 245 250 314 1 39 59 63 45 15 100 185 198 242 253 124 134 232 247 234 231 226 211 209 189 157 150 148 153 162 172 182 190 192 193 193 191 186 186 190 194 201 205 208 209 205 204 202 202 200 196 194 189 188 190 191 192 194 198 197 190 184 180 178 176 174 170 167 168 166 163 161 155 152 154 156 155 153 153 149 142 136 135 141 143 138 136 137 139 141 142 142 144 148 147 147
230 237 254 264 316 346 47 77 70 63 5 307 232 195 240 253 156 166 226 256 251 245 241 228 221 205 171 156 160 163 168 176 186 198 201 200 197 195 194 193 195 196 198 201 209 211 208 209 206 204 205 203 202 198 193 193 194 197 199 202 202 198 193 189 188 186 182 178 177 182 183 176 169 164 163 166 165 164 163 163 160 156 153 152 154 152 147 144 145 148 149 151 148 145 146 146 149
270 263 265 271 293 320 50 83 55 55 16 297 246 225 244 260 178 206 226 239 245 241 259 235 281 225 165 157 164 165 173 181 187 200 206 207 202 196 196 197 193 192 195 198 207 212 210 211 209 206 204 203 205 202 197 197 196 198 202 202 201 199 197 193 192 191 188 186 187 192 192 185 178 174 172 173 172 171 171 169 168 170 164 154 150 149 148 150 154 157 159 161 159 156 155 153 155
292 271 270 275 286 301 359 78 81 40 297 253 253 256 268 250 228 231 227 235 245 229 120 112 52 60 142 154 162 168 179 185 189 198 204 209 206 197 196 194 187 188 195 199 206 212 211 210 209 208 204 203 205 199 196 200 194 196 202 198 197 197 194 193 192 192 191 191 196 199 196 190 187 182 178 180 179 176 174 172 173 173 161 148 151 156 156 159 164 166 169 170 170 169 167 166 166
273 270 275 286 294 288 331 55 152 204 257 256 299 333 278 249 250 249 236 238 242 240 196 141 127 111 138 152 166 177 183 188 195 199 202 208 208 202 198 195 191 191 194 200 206 211 213 210 208 207 204 203 201 192 194 199 187 190 199 193 191 194 193 191 190 194 196 198 201 201 197 193 191 189 188 187 179 172 171 171 171 167 160 159 168 172 165 166 173 176 178 176 176 175 173 172 171
263 262 269 299 319 278 286 254 229 209 232 264 296 286 257 253 260 259 252 245 236 238 231 177 161 154 161 168 175 182 185 190 196 197 201 208 211 207 206 203 194 192 196 200 204 208 213 211 205 205 204 201 198 191 194 196 186 189 197 190 186 191 189 187 192 198 201 201 198 197 198 197 196 195 196 191 177 171 172 173 173 172 173 174 179 179 174 176 180 180 180 177 176 174 172 171 170
297 295 294 312 298 280 260 233 245 229 221 224 243 256 253 254 259 258 252 246 238 235 236 213 178 188 200 188 182 184 187 191 193 194 198 203 206 207 212 210 196 194 199 200 202 206 211 209 203 204 204 201 198 195 195 195 191 195 199 193 190 192 186 188 197 200 202 203 197 193 193 197 200 199 196 189 180 179 179 177 179 181 181 181 182 182 180 182 181 178 178 176 174 174 173 172 172
331 310 304 303 291 285 260 237 244 239 232 218 230 252 256 248 243 249 243 234 228 222 231 219 187 199 214 210 201 190 190 192 190 190 192 197 201 205 211 211 202 199 199 198 202 204 207 207 203 202 203 201 200 198 196 196 198 200 200 197 196 194 190 195 200 199 202 206 204 195 185 186 195 196 193 188 187 189 184 180 184 187 186 184 184 182 180 182 182 179 178 175 174 174 173 173 177
313 298 297 291 281 274 255 243 242 242 239 226 237 257 263 252 232 243 237 194 185 198 216 210 192 207 214 217 215 200 201 195 187 186 189 195 199 201 205 208 206 201 197 198 200 201 203 204 203 201 201 200 200 199 197 198 201 202 200 199 199 196 198 200 199 200 203 206 208 200 188 183 189 194 193 191 195 196 189 187 188 189 189 187 186 184 182 182 183 180 177 176 176 176 172 172 177
296 291 288 281 276 269 254 239 226 232 239 208 246 271 261 234 229 242 234 182 171 184 198 203 202 215 215 216 215 207 210 197 187 192 198 199 200 201 203 206 205 202 200 200 198 200 203 203 202 200 200 200 199 198 198 199 201 202 200 201 200 199 202 203 201 203 205 207 208 202 194 189 189 196 196 196 200 198 193 192 191 192 192 191 191 188 187 187 185 183 180 178 177 176 174 171 174
282 277 275 282 281 272 257 235 209 220 217 145 169 279 259 226 236 241 217 170 177 191 200 206 208 214 217 215 210 208 207 200 197 202 204 202 202 203 204 205 204 202 202 199 198 200 201 200 200 199 199 200 200 198 198 199 200 201 201 201 202 202 203 203 204 207 207 210 210 204 200 196 195 198 198 199 201 199 196 194 193 194 194 196 195 192 191 189 186 185 183 179 177 179 178 174 176
270 270 270 270 269 276 269 217 178 198 187 149 176 265 269 280 276 241 153 159 177 203 215 214 216 212 214 214 209 210 204 204 208 208 207 205 203 203 204 204 201 202 201 199 199 200 198 198 198 198 198 199 199 198 198 199 199 202 202 202 205 205 204 205 206 209 210 212 214 209 205 203 203 203 203 203 203 201 199 197 198 198 198 199 196 191 188 187 187 184 183 180 175 178 180 173 178
245 258 264 249 254 276 266 167 163 187 177 171 183 254 270 277 305 96 117 162 179 215 230 227 230 214 202 205 208 212 207 207 209 210 210 207 205 201 202 203 200 200 201 200 199 198 199 199 198 197 197 197 197 196 197 198 201 203 203 204 208 207 206 209 209 211 212 214 216 215 212 210 209 209 207 206 205 205 204 203 203 202 202 198 193 188 186 189 189 183 184 183 176 178 178 172 180
229 231 249 252 260 276 265 154 176 192 151 185 198 240 272 264 133 134 147 179 190 218 229 230 240 227 202 197 202 207 207 206 206 210 211 207 204 203 202 202 200 199 200 200 198 197 198 198 198 197 196 196 194 193 194 197 200 202 202 205 209 208 208 210 212 213 214 215 218 219 219 217 215 213 211 207 205 206 205 205 204 205 203 197 192 189 189 193 191 186 185 183 183 186 181 176 182
241 235 247 246 250 272 280 164 198 199 168 208 217 239 258 263 258 240 202 193 203 218 226 230 239 240 223 207 202 202 202 205 203 208 209 204 202 203 203 201 199 199 199 199 198 198 197 197 198 197 196 195 192 191 192 195 198 199 202 205 208 208 209 211 214 215 216 217 219 220 220 218 217 215 212 208 205 205 205 205 205 206 203 198 197 195 195 196 194 193 189 184 189 192 186 182 186
280 279 288 274 270 287 288 300 176 183 208 231 229 245 257 259 258 256 242 219 217 223 227 234 238 240 241 234 224 210 201 206 208 208 205 200 200 201 199 199 198 197 198 199 199 197 196 196 197 196 195 194 192 190 191 193 195 197 201 204 207 209 209 212 215 217 218 219 220 222 220 217 215 214 211 208 205 204 205 205 206 207 203 201 201 200 200 200 198 198 194 189 190 192 191 189 189
279 284 289 290 293 287 282 293 247 191 224 244 238 256 265 265 262 263 262 247 241 241 237 238 237 233 235 237 239 231 218 216 212 208 201 195 195 194 193 195 194 196 198 198 197 195 195 195 194 195 195 194 191 189 189 190 191 194 198 202 205 208 210 212 216 218 219 220 221 222 221 217 215 213 211 209 207 207 207 208 209 209 206 204 204 204 204 204 202 200 196 194 190 185 189 192 193
274 284 287 285 280 274 274 284 273 183 225 252 248 269 272 272 273 270 269 263 257 254 250 249 245 238 235 233 235 236 237 238 200 187 183 181 184 185 187 190 190 193 196 195 195 195 195 196 194 195 195 193 192 189 190 190 190 191 195 199 203 206 209 212 215 217 218 220 221 221 220 218 216 214 212 210 209 210 211 212 213 212 209 207 207 209 208 206 204 201 197 195 192 185 182 187 192
284 286 286 281 273 277 276 276 271 158 214 265 264 279 277 275 276 272 268 263 257 251 247 249 247 246 246 239 236 234 228 148 93 133 146 158 168 176 180 183 186 189 192 194 195 196 196 198 198 198 197 195 195 193 192 193 194 195 196 200 203 205 209 212 214 216 217 219 221 221 220 218 218 216 215 214 213 214 214 215 216 214 212 210 209 210 209 207 204 201 197 194 194 192 189 188 188
288 278 276 274 270 280 277 270 266 198 217 280 284 284 279 277 276 273 266 257 253 247 241 243 245 246 248 246 248 243 195 118 98 113 129 147 158 167 173 177 185 189 192 194 196 197 197 199 200 199 199 198 199 197 195 196 198 201 203 204 205 207 211 215 217 218 218 219 221 221 220 219 220 218 217 216 217 218 218 218 218 216 214 212 211 209 208 208 205 202 200 197 192 193 198 195 192
268 258 258 265 269 279 276 276 278 240 226 265 279 281 276 278 276 266 259 250 249 247 242 242 241 242 246 248 261 319 117 123 130 133 136 147 152 159 166 173 184 189 192 195 196 198 198 200 200 199 200 200 201 202 200 199 199 200 204 207 207 210 214 216 218 220 220 219 219 220 219 219 219 218 217 217 218 219 219 219 219 217 215 213 213 211 209 209 208 204 202 201 194 190 196 200 200
259 253 253 260 262 261 267 290 303 285 270 266 275 277 273 276 271 263 258 240 238 234 233 236 232 239 245 235 97 74 100 128 147 157 155 147 149 159 168 176 184 190 195 197 198 200 200 202 202 201 202 202 203 205 202 199 196 194 193 192 195 201 206 208 211 214 216 217 219 220 219 219 219 218 218 218 219 220 219 220 219 218 217 215 214 214 212 212 210 207 204 203 200 197 198 198 201
265 255 258 270 271 264 265 293 314 300 286 283 294 287 278 282 279 283 305 301 261 229 209 214 226 245 252 158 108 93 99 96 85 130 146 142 147 160 173 181 187 194 200 202 202 202 203 203 203 203 203 202 204 205 202 198 196 195 191 187 187 190 193 201 208 210 212 216 219 220 219 219 219 219 220 220 222 222 222 222 221 220 219 216 216 216 215 214 213 211 208 206 206 205 204 199 200
270 265 287 295 299 301 292 298 302 277 280 292 322 274 286 295 288 273 272 268 260 233 193 202 222 221 90 95 102 100 95 83 63 85 123 140 152 164 178 188 192 199 202 203 204 204 204 203 203 203 203 203 204 204 202 199 198 198 198 199 199 199 202 209 214 214 216 218 219 220 220 220 221 221 223 224 224 224 224 223 222 222 220 218 217 217 216 216 217 215 211 209 209 207 205 204 204
264 332 342 316 315 311 301 297 279 266 292 284 253 239 273 289 281 257 250 264 260 233 206 196 183 114 103 95 90 87 83 96 102 110 131 151 166 177 187 192 197 201 202 202 203 204 204 204 204 203 204 204 204 205 204 203 202 201 203 205 208 210 212 215 216 215 218 221 219 220 222 222 223 224 225 226 225 224 224 223 222 221 221 219 218 217 218 218 218 216 213 211 210 207 206 209 210
262 29 342 320 321 294 294 295 271 274 296 279 252 214 234 273 273 267 274 278 267 241 209 150 111 104 108 105 100 98 95 113 138 156 166 170 175 185 190 194 198 200 201 201 203 205 204 205 205 204 205 204 203 204 204 205 207 207 207 209 212 216 218 220 220 218 218 220 220 221 224 225 226 226 226 226 225 225 223 223 222 221 220 219 218 217 217 217 217 217 215 213 211 210 209 211 212
8 14 317 300 273 264 267 254 258 273 263 264 250 193 217 270 274 274 256 250 250 228 152 105 109 119 121 122 122 120 126 147 170 180 184 170 167 180 183 187 191 194 199 201 202 205 205 205 207 205 206 206 204 204 204 205 207 209 210 212 216 219 219 219 220 217 216 218 219 221 223 224 225 226 226 226 226 225 224 223 223 222 222 221 219 218 217 217 217 218 218 216 214 212 211 212 210
14 344 307 292 251 234 233 228 235 245 249 258 248 212 220 262 279 287 242 226 235 108 110 114 120 127 137 145 144 151 164 184 197 191 179 150 145 163 169 174 182 188 196 199 200 204 205 206 208 207 207 208 207 207 207 207 207 210 213 216 218 219 218 215 213 212 213 215 217 219 220 222 225 227 227 226 226 225 224 223 223 223 223 222 222 221 219 219 219 220 220 219 217 215 214 216 213
18 306 296 299 271 226 220 214 201 225 252 259 242 219 215 234 267 272 170 176 86 103 137 152 157 154 157 158 154 166 178 183 186 182 169 153 144 151 162 172 179 185 192 198 201 203 205 207 210 210 209 209 211 211 211 212 212 214 216 219 221 221 220 217 215 215 214 215 216 217 219 222 225 228 228 227 226 225 224 223 223 223 223 223 224 224 224 223 222 222 222 221 220 218 216 216 216
178 223 236 274 284 253 230 225 204 223 245 246 243 232 220 234 252 249 255 277 234 205 180 156 156 157 152 153 157 167 180 180 176 172 166 162 156 158 173 183 187 190 194 198 201 203 205 208 211 214 213 213 214 215 215 216 217 218 219 221 224 224 223 222 221 222 221 221 220 219 220 221 222 224 226 226 226 225 224 223 223 223 224 225 226 227 226 225 224 223 223 223 222 220 218 216 217
184 198 195 208 246 264 247 245 242 242 246 237 237 271 255 257 263 257 269 277 245 226 191 142 136 136 138 150 157 159 171 177 169 161 158 158 163 172 184 192 194 195 197 198 201 203 205 208 211 216 217 217 217 218 219 219 220 222 223 224 226 226 226 225 226 227 226 227 226 224 224 223 224 225 226 227 227 226 226 226 226 226 226 227 227 227 227 226 226 225 224 224 223 222 220 218 219
197 192 198 225 242 263 263 265 266 274 294 276 234 212 234 236 238 236 241 201 118 76 102 113 112 119 128 146 154 151 163 167 151 142 145 154 167 177 186 195 199 198 195 194 199 204 208 212 214 217 219 219 219 219 220 221 222 223 224 225 226 227 228 228 229 229 228 228 229 228 227 227 228 229 230 231 230 229 228 229 229 229 228 227 226 226 226 226 225 224 224 224 223 222 221 220 220
211 169 199 243 242 246 268 270 268 283 304 280 248 253 260 265 280 269 249 161 142 127 115 115 122 120 116 142 155 145 145 142 128 131 147 160 166 174 185 194 198 193 184 185 198 208 214 217 219 221 222 222 221 221 222 224 225 225 225 225 226 226 227 229 230 230 229 229 229 229 230 230 231 232 233 233 233 232 232 233 232 231 229 228 227 227 226 226 224 222 222 221 221 221 221 221 221
61 160 202 260 242 166 254 269 271 271 274 264 248 258 271 281 284 277 258 161 148 131 127 141 148 122 117 152 150 120 119 128 139 154 162 162 163 174 188 196 193 180 169 184 205 215 220 222 222 224 225 225 224 224 225 226 226 227 227 227 227 227 227 228 229 230 231 231 231 232 234 235 234 234 233 233 233 233 235 235 234 232 231 228 227 227 227 226 224 222 221 220 220 220 221 222 222
108 206 221 349 337 86 201 263 270 252 254 260 253 256 269 272 274 308 40 133 166 182 168 158 109 116 139 172 124 110 120 132 145 148 133 131 149 174 189 191 179 158 162 195 215 222 226 228 227 228 228 227 227 227 228 228 227 229 230 230 230 230 230 231 231 232 233 233 233 233 235 236 235 234 233 233 233 233 234 234 233 232 231 229 227 227 226 226 224 223 222 222 221 221 221 221 222
155 237 329 54 279 251 204 228 257 254 258 263 255 257 262 256 258 302 309 226 192 202 193 152 120 125 111 57 92 107 108 91 71 76 90 107 152 176 171 160 141 135 175 210 222 227 231 234 235 236 237 237 237 234 232 232 231 232 234 234 234 234 234 235 235 235 235 234 234 233 233 234 234 233 232 232 233 233 233 232 231 230 229 228 227 227 227 226 225 224 222 221 221 220 221 221 221
76 344 300 128 195 247 229 199 206 250 261 268 269 267 259 250 248 281 292 211 159 168 163 148 125 92 59 75 103 105 87 71 56 58 76 116 149 142 128 114 104 114 194 223 232 237 241 245 247 247 249 249 247 243 240 238 237 237 238 239 238 238 237 237 237 236 235 235 235 234 233 233 233 233 232 233 233 234 233 231 230 229 228 228 227 227 227 225 225 224 223 221 220 219 220 220 220
174 211 233 208 190 242 278 244 222 236 257 264 270 270 264 253 212 281 324 99 115 108 115 111 55 46 62 108 125 107 84 72 58 47 46 94 127 111 97 88 84 89 231 245 252 257 261 263 261 261 261 259 256 252 248 245 244 242 242 243 243 243 242 241 240 238 237 237 236 235 234 233 233 234 234 234 234 234 234 233 231 230 229 229 228 227 227 225 224 224 223 222 220 218 219 219 218
206 204 218 215 210 226 255 243 220 207 233 249 255 266 269 266 116 312 322 88 84 46 58 33 2 21 46 132 138 113 94 72 56 37 27 34 64 70 61 49 39 25 355 318 293 285 284 288 287 282 280 278 274 269 264 257 253 249 248 249 249 248 247 245 242 240 239 239 238 237 236 235 235 236 236 236 236 235 235 234 233 232 231 230 230 228 227 224 223 224 223 222 220 219 218 218 217
Height
797 797 797 798 797 798 798 798 812 808 806 815 803 796 786 774 777 779 784 785 786 791 789 789 789 790 792 794 796 799 804 806 808 810 813 820 823 823 823 823 822 822 820 819 819 818 819 818 817 818 818 817 816 816 816 816 816 817 818 818 819 819 818 819 819 820 821 822 823 826 829 831 827 821 822 825 827 831 833 834 834 834 835 838 841 844 846 848 850 851 851 851 851 851 852 853 854
797 797 796 798 796 800 798 796 814 810 809 819 800 789 782 775 779 778 783 787 790 792 789 789 790 791 792 793 794 796 807 810 809 813 818 822 822 822 823 823 822 821 820 819 819 819 819 818 818 819 819 818 817 816 816 816 816 817 817 817 818 818 818 818 819 820 821 822 824 827 829 832 834 826 823 828 830 834 836 836 836 836 837 839 842 844 845 847 849 851 852 852 851 852 852 854 855
797 797 796 798 796 799 797 797 814 812 811 814 795 784 778 779 784 782 785 788 790 790 789 791 791 792 792 793 794 797 809 812 810 815 819 821 821 822 822 822 821 820 820 819 819 819 819 819 820 821 819 819 818 817 817 816 816 816 817 817 818 818 818 818 818 820 821 823 824 828 828 830 836 832 826 828 831 835 837 838 837 838 839 841 843 844 845 846 848 850 852 852 852 852 853 854 855
796 797 796 797 798 800 801 805 811 812 811 802 791 784 777 785 792 791 790 789 789 789 790 791 793 793 793 796 795 797 809 812 810 813 817 820 820 820 821 821 821 820 821 819 820 820 820 820 821 822 820 820 819 818 818 817 817 817 817 817 819 819 818 819 819 821 822 824 825 828 830 831 837 836 831 830 832 836 838 839 839 840 841 843 843 844 844 845 848 850 852 853 853 853 853 855 855
796 797 796 796 800 800 800 804 804 809 808 793 788 784 778 787 793 793 791 790 790 791 792 791 795 794 793 797 794 800 811 811 810 812 816 819 819 819 820 820 820 821 821 820 820 820 820 820 822 823 821 821 820 820 820 819 819 818 819 819 820 820 820 820 821 822 823 826 827 830 832 832 836 838 835 833 834 837 840 841 842 842 843 845 844 844 844 845 847 849 851 852 852 852 853 854 855
796 797 795 795 796 795 801 805 803 802 793 782 784 783 780 785 788 791 792 792 791 792 793 792 795 795 795 799 798 805 810 810 811 812 814 817 818 819 820 820 821 821 821 820 821 821 820 820 821 823 823 822 822 821 821 821 821 821 821 821 821 821 821 822 823 824 825 827 829 831 834 834 836 838 837 833 834 839 841 842 844 845 846 847 846 844 844 845 846 848 850 850 851 851 852 854 854
797 797 795 798 796 794 807 808 801 794 783 777 780 781 782 784 786 791 793 795 796 794 795 795 794 795 798 799 802 809 809 808 809 812 814 815 817 818 819 820 821 821 821 821 821 821 821 821 821 823 825 823 823 823 823 823 824 823 823 823 823 823 823 824 825 826 827 829 831 832 834 836 838 839 839 836 835 839 843 844 845 847 848 848 847 845 845 846 847 849 850 850 851 851 853 854 854
797 798 793 801 803 798 807 806 796 788 782 778 778 779 782 785 786 791 794 795 797 796 796 797 794 798 800 795 802 810 809 809 809 812 813 814 816 818 819 820 821 821 822 821 821 822 821 821 821 823 825 825 825 824 825 825 825 825 826 826 825 826 826 826 827 828 829 831 832 834 835 837 838 839 840 839 838 840 843 844 845 848 849 849 848 847 847 848 849 851 851 852 852 853 855 855 855
795 797 795 801 806 803 803 801 793 783 780 780 781 782 781 783 784 789 793 793 795 795 796 796 795 800 800 796 805 811 810 811 810 812 812 814 816 817 819 819 821 821 822 822 821 822 822 822 822 823 825 826 827 826 826 827 827 827 828 828 828 828 828 828 829 830 831 832 833 835 837 838 839 840 841 840 840 841 842 843 845 847 849 849 849 848 848 849 850 851 852 853 853 854 855 856 855
794 796 797 801 805 807 804 797 789 780 778 778 780 782 781 782 783 786 792 795 795 796 798 796 797 800 798 798 807 811 810 811 811 812 813 814 815 816 818 819 821 821 822 822 822 822 822 823 823 823 825 826 827 828 827 828 829 829 829 830 830 829 830 830 831 832 833 834 835 837 838 839 840 841 842 841 841 842 843 845 846 846 847 849 850 850 849 850 852 853 853 853 853 854 855 855 855
797 794 796 805 809 810 805 794 784 778 778 779 779 780 780 781 783 786 790 795 796 796 800 799 799 800 798 799 807 811 810 811 811 812 812 813 815 816 817 819 820 821 822 822 822 822 822 823 823 824 825 825 827 828 829 830 830 830 830 831 831 831 832 833 833 834 835 836 837 838 839 840 841 841 842 842 842 843 845 847 847 848 848 848 850 851 850 851 853 854 854 853 854 854 855 855 856
802 796 795 809 810 804 797 788 781 778 782 781 782 780 779 781 785 788 789 795 796 797 799 800 799 798 799 800 807 812 810 811 811 811 812 813 814 815 817 818 820 820 821 822 822 823 822 823 823 824 826 826 826 827 829 830 831 831 832 832 832 833 833 834 835 836 836 837 838 839 840 840 841 842 842 843 843 845 845 847 848 849 850 850 851 851 850 851 853 854 854 854 854 855 855 855 856
801 797 797 805 801 796 791 785 780 781 783 778 779 780 779 783 786 787 788 792 795 798 797 796 797 798 800 801 808 811 809 811 810 811 812 812 814 815 816 817 819 820 821 821 822 823 823 823 823 824 826 827 827 827 828 830 831 831 832 833 833 834 834 835 836 837 837 838 839 840 840 841 842 842 843 843 844 845 846 847 848 849 850 851 852 851 851 851 853 854 854 854 855 856 856 856 857
796 793 797 802 795 792 788 785 782 784 782 771 775 779 779 784 783 783 787 792 795 796 795 793 795 799 800 800 808 809 808 810 809 811 811 812 813 814 816 816 818 819 820 821 822 822 823 824 824 824 826 827 827 827 828 829 830 831 832 833 834 834 835 836 836 837 838 839 840 840 841 841 842 843 843 844 844 845 846 847 848 849 850 851 851 851 851 851 852 853 854 854 855 856 856 857 858
794 792 795 803 800 795 788 785 783 785 783 774 777 780 781 783 780 783 786 791 794 793 793 794 795 799 798 796 802 803 805 807 808 810 811 812 813 813 815 815 816 817 819 820 821 822 823 824 823 824 825 827 828 828 829 829 830 831 831 833 834 834 835 836 836 837 838 838 839 840 841 841 842 843 844 844 845 845 846 847 848 850 851 851 851 851 851 852 852 853 854 854 855 856 856 857 858
791 793 799 805 804 800 789 780 780 787 787 780 780 780 783 785 781 786 787 788 794 794 794 796 795 796 795 795 799 799 803 806 807 810 811 812 812 813 814 814 815 816 818 819 820 822 822 823 823 824 825 826 827 828 829 829 830 831 831 832 832 833 834 835 836 837 837 838 839 840 840 841 842 843 844 845 845 846 847 848 849 850 852 852 852 851 852 852 852 853 854 854 855 855 856 857 858
789 796 806 808 804 799 787 777 779 786 787 783 782 781 785 787 784 786 787 788 792 794 794 793 793 794 794 797 800 800 803 805 807 809 810 811 812 812 813 813 814 814 816 818 818 820 821 822 823 824 825 826 827 827 828 829 829 830 831 831 832 833 834 835 835 836 837 838 838 839 840 840 842 843 844 844 845 847 847 849 850 851 852 853 852 852 853 853 854 854 854 854 855 855 856 857 858
793 800 808 808 800 792 783 779 779 780 783 785 783 782 783 786 787 786 787 790 790 792 792 791 791 793 796 798 800 801 803 805 806 807 807 809 810 810 811 811 812 813 814 816 817 818 819 821 822 823 824 825 825 827 828 828 829 830 830 830 831 832 833 834 835 835 836 837 838 838 839 840 841 842 843 844 845 846 848 849 850 851 852 852 852 853 853 854 855 855 855 854 854 856 857 858 858
795 800 804 801 790 784 779 780 780 780 784 785 783 782 782 782 784 787 790 790 788 791 790 789 791 794 797 798 800 801 802 804 805 805 805 806 807 807 808 809 810 811 811 813 814 815 818 819 820 822 823 824 824 826 827 827 828 828 829 830 830 831 832 833 834 835 835 836 837 837 838 839 840 841 843 844 844 845 846 848 849 850 850 851 852 853 853 854 854 854 854 854 855 856 857 858 858
792 796 802 794 782 781 778 779 782 782 783 783 783 782 783 781 781 787 790 788 787 788 787 786 788 790 794 797 798 800 801 803 804 804 804 804 805 805 805 806 807 808 809 810 811 813 815 816 818 820 821 822 823 824 825 826 826 827 828 829 830 831 831 832 833 834 835 836 836 836 837 837 839 840 841 842 843 845 845 846 847 847 848 850 851 851 851 852 853 853 854 855 855 856 857 858 858
788 791 797 787 778 782 780 781 784 783 783 783 783 784 785 780 780 785 787 789 788 783 779 779 780 780 786 794 796 798 800 801 802 802 802 802 802 803 803 803 804 805 807 808 809 810 812 814 815 817 819 820 821 822 823 824 825 826 827 827 829 829 830 831 832 833 834 835 835 836 836 837 838 839 840 841 842 844 844 845 846 846 847 848 848 849 850 851 852 853 854 854 855 856 857 858 858
789 788 788 782 778 783 781 783 786 785 785 785 785 786 784 780 781 783 785 789 785 778 776 774 774 774 779 787 792 795 797 798 799 799 799 799 799 800 801 802 803 804 805 806 806 807 809 811 813 815 817 818 819 821 821 822 823 824 825 826 827 828 829 830 831 832 833 834 834 835 836 837 838 838 839 840 841 842 843 844 845 846 846 847 848 849 849 850 852 853 854 854 855 856 856 857 858
794 791 784 780 778 782 781 783 787 787 787 788 786 784 782 782 784 781 782 783 777 774 774 773 774 773 775 782 787 790 793 794 794 795 795 795 796 796 798 799 800 801 802 803 804 805 807 808 810 812 814 815 817 819 820 820 822 823 823 824 825 827 828 829 830 831 832 833 834 834 835 836 837 838 838 839 840 841 843 844 845 846 847 847 848 849 850 850 852 852 853 854 854 855 856 857 857
794 794 786 781 779 781 782 783 787 786 788 787 785 785 784 786 784 779 777 776 773 772 771 772 773 773 776 780 784 786 787 789 790 790 792 792 793 794 796 797 798 799 800 801 802 803 804 806 808 810 811 813 815 817 818 818 820 821 822 823 824 825 826 828 829 830 831 832 833 834 834 835 836 837 838 838 839 840 842 843 844 846 846 847 848 849 849 850 851 852 852 853 854 855 856 856 857
791 791 785 782 782 782 782 784 785 785 787 786 786 788 785 782 781 778 774 771 770 771 770 771 773 773 775 778 780 782 783 785 786 788 790 791 792 793 794 795 796 796 797 799 800 801 802 803 805 807 809 810 812 814 815 816 818 819 820 821 823 824 825 827 828 829 830 831 832 833 834 834 835 836 837 838 839 840 841 842 843 845 845 847 847 848 849 849 850 851 852 853 854 854 855 856 856
788 786 783 783 783 780 781 783 784 785 785 786 788 788 783 778 778 775 768 767 768 768 769 769 771 773 773 774 776 778 780 782 783 785 787 788 790 791 791 792 793 793 794 796 797 798 799 801 803 804 806 808 810 811 813 814 816 816 818 820 821 822 824 826 827 828 829 830 831 832 833 834 834 835 836 837 838 839 840 841 842 843 844 845 847 848 849 849 850 851 852 853 853 854 855 855 856
786 785 784 783 783 780 780 782 782 782 782 784 787 787 780 775 778 775 765 763 764 765 767 766 769 772 771 772 773 774 776 777 779 782 784 786 787 787 787 788 789 789 791 793 794 795 797 798 800 802 803 805 807 809 810 812 813 814 816 818 819 820 822 823 825 827 828 828 829 830 832 833 834 834 835 837 837 838 839 840 842 842 844 845 845 847 848 849 850 851 852 853 853 853 854 855 855
786 787 786 785 783 780 777 779 780 780 781 780 781 783 778 775 778 771 761 761 761 763 765 764 767 769 769 770 770 771 772 773 776 778 780 780 780 782 782 783 784 786 787 789 790 792 794 795 797 799 801 803 804 806 808 809 810 812 814 815 817 818 820 821 824 825 826 827 828 829 830 832 833 833 834 836 836 837 838 839 840 842 843 844 844 845 847 848 849 850 851 852 852 853 854 854 855
787 788 791 788 782 780 775 774 777 779 780 777 780 785 778 775 772 759 755 760 761 763 764 764 766 767 768 768 768 768 768 770 772 773 773 774 775 777 777 778 780 783 783 785 788 789 791 792 794 796 798 800 801 803 805 806 808 810 811 813 814 816 817 820 822 823 824 825 826 827 829 830 831 832 833 834 835 837 838 838 839 840 842 843 843 844 845 846 848 849 850 851 852 852 853 853 854
789 789 791 790 787 782 770 767 771 777 779 775 784 790 774 764 759 749 751 757 760 763 764 764 765 765 766 765 765 766 766 767 768 768 769 770 772 773 774 776 777 779 781 783 785 786 788 789 791 793 795 796 798 800 802 803 805 807 809 810 812 813 815 818 819 820 821 822 824 826 826 828 828 829 831 832 834 835 836 837 838 839 840 841 843 844 845 846 847 848 849 850 851 852 852 853 853
790 791 791 791 795 787 766 762 770 778 779 774 785 793 775 760 753 747 750 755 760 763 762 762 762 762 762 762 763 763 763 764 764 765 766 767 768 769 771 772 774 776 777 779 780 783 785 786 788 790 792 793 795 797 799 800 802 804 806 808 809 811 813 815 816 818 818 819 821 823 824 826 826 828 829 830 831 833 834 836 836 837 839 840 842 843 844 845 845 846 847 849 850 851 852 852 853
788 796 798 791 792 786 767 762 769 777 780 776 785 792 775 761 756 752 753 755 759 762 760 758 757 756 758 759 760 760 761 761 761 762 762 763 764 765 767 768 770 772 773 775 777 780 782 783 785 787 789 790 792 794 796 798 799 801 803 805 806 809 810 812 813 815 816 816 818 820 822 823 824 826 827 829 830 831 833 834 835 836 837 839 840 841 843 844 844 845 846 847 849 850 851 851 851
788 793 799 792 789 786 773 769 768 771 779 779 782 783 771 761 758 755 756 756 758 760 757 755 753 751 751 754 755 756 757 757 758 758 757 758 760 761 762 764 766 768 769 771 774 776 778 780 782 784 786 788 790 792 794 795 797 798 800 802 804 806 807 809 810 812 813 814 815 817 820 821 823 825 826 827 828 830 831 832 833 834 835 837 838 839 841 842 843 844 844 846 847 848 849 850 850
790 786 790 788 785 784 781 778 772 769 777 781 779 778 771 764 758 755 755 755 756 756 754 751 749 747 746 747 749 750 752 752 752 751 750 752 755 756 758 760 762 764 766 768 771 773 775 778 780 782 784 786 788 790 791 792 794 796 798 799 801 803 804 806 807 809 810 812 813 814 816 818 820 822 824 825 826 827 828 829 830 831 833 834 836 837 838 840 841 842 843 844 845 846 847 848 849
792 789 789 787 783 784 783 779 774 773 777 779 779 777 769 762 758 753 751 751 751 750 748 747 745 744 743 742 742 743 745 745 743 742 744 747 750 753 756 758 760 762 765 767 769 771 774 776 778 780 782 784 786 787 788 790 792 793 795 797 798 800 802 803 804 806 807 809 810 811 813 815 817 819 820 822 823 824 825 827 828 829 831 832 834 835 836 837 838 839 841 842 843 844 845 846 846
789 787 788 789 788 787 782 776 771 772 777 778 777 773 764 758 755 750 746 744 744 743 741 741 740 739 739 738 738 737 737 737 735 736 740 744 748 752 755 757 760 762 764 767 768 770 773 774 776 778 779 781 783 784 785 787 789 790 792 793 795 797 798 800 801 803 804 806 807 809 811 813 814 816 818 820 821 822 824 825 826 828 829 831 832 832 833 834 835 837 838 840 841 842 844 845 845
785 786 787 788 789 787 779 774 769 768 776 775 770 769 760 754 752 747 743 741 739 738 737 736 735 735 734 734 734 732 732 731 731 734 738 742 747 750 754 756 759 762 763 766 768 769 772 773 774 775 777 778 779 780 781 782 784 786 788 789 791 793 795 797 798 800 801 803 804 806 808 810 812 814 816 818 819 820 822 823 824 826 827 829 830 831 832 832 833 835 836 838 839 840 842 843 843
785 789 791 790 789 786 777 773 768 768 777 774 768 768 759 751 750 744 740 739 735 733 733 732 731 731 731 729 730 728 728 731 731 734 738 742 746 750 753 755 757 760 761 764 766 768 770 772 772 774 775 777 777 777 778 779 781 783 785 787 789 791 792 794 795 797 799 801 802 804 805 808 810 812 814 816 818 819 820 821 822 823 825 827 828 830 831 831 832 832 833 835 836 838 839 840 841
790 791 794 794 788 784 778 771 767 769 777 775 770 771 759 746 746 741 737 734 729 726 726 727 727 728 727 725 726 724 726 732 734 736 739 742 746 749 752 755 757 759 761 763 765 766 769 770 771 773 774 775 777 777 777 779 781 783 785 787 788 790 791 792 794 795 797 798 799 801 803 805 807 809 811 812 814 816 817 819 819 821 823 824 825 827 828 829 830 830 830 831 833 836 837 837 838
792 792 795 794 786 786 785 775 768 767 772 772 770 771 757 743 743 738 729 725 721 721 721 721 723 723 722 722 723 723 726 733 736 738 741 743 747 750 752 755 757 759 760 761 763 764 766 767 768 770 772 774 776 776 777 778 780 783 785 786 787 788 790 791 793 794 795 795 796 798 799 801 803 806 807 809 810 812 814 815 817 818 820 821 822 823 824 826 827 828 828 828 830 832 833 834 835
792 789 791 790 784 784 783 776 771 768 768 766 768 773 757 740 741 733 720 718 717 718 718 718 719 718 717 719 722 725 728 732 735 738 741 744 747 750 752 754 756 757 758 759 760 761 763 764 766 768 769 771 773 774 775 777 779 780 782 784 785 787 788 790 790 791 791 792 793 794 796 797 800 802 804 806 807 809 811 812 814 815 816 818 819 820 821 822 824 825 826 826 826 827 828 830 832
793 788 784 783 780 779 777 776 778 781 780 769 770 782 764 737 737 733 722 720 718 715 716 717 717 716 717 720 723 726 728 731 734 736 740 743 747 750 751 753 754 755 755 756 758 759 761 762 764 765 766 768 769 770 772 774 775 776 777 778 781 782 784 785 784 785 787 788 789 791 793 795 797 799 801 803 804 806 807 809 810 811 812 814 815 817 818 820 821 822 823 824 824 825 825 827 828
796 787 780 778 778 779 779 780 785 790 786 772 770 784 774 746 737 736 728 724 720 715 716 716 716 718 720 722 725 727 730 733 735 737 740 743 746 748 749 750 751 752 753 755 756 758 759 760 761 763 764 765 766 768 769 771 771 772 773 774 776 777 779 779 780 783 784 786 788 789 791 792 794 796 798 800 801 802 803 804 805 806 808 809 811 813 814 815 817 818 820 821 822 823 823 823 824
794 784 782 781 781 783 782 784 788 787 782 774 769 777 781 761 737 728 725 723 720 717 716 717 717 721 724 725 728 730 733 735 737 738 740 743 744 745 746 747 748 750 751 754 755 756 758 759 760 761 762 763 764 766 767 768 769 770 771 773 774 774 776 777 779 781 783 784 786 786 788 789 791 793 794 796 797 798 799 800 801 802 803 805 807 808 810 811 813 814 816 817 818 820 819 820 821
788 783 784 783 784 785 784 787 789 785 786 784 770 769 782 768 735 724 727 726 724 717 715 719 722 725 727 729 732 733 735 737 738 739 739 740 742 743 745 746 748 750 752 753 755 756 757 758 760 761 762 762 763 764 765 767 768 769 770 772 773 774 775 778 779 780 781 782 783 784 785 787 788 790 791 793 794 795 797 798 799 800 801 802 803 804 806 807 809 810 811 813 814 815 816 817 818
785 785 785 784 786 786 786 790 789 789 793 785 770 766 777 768 737 727 731 729 725 718 717 723 725 727 729 730 733 735 737 738 738 739 739 740 742 743 745 746 748 749 751 752 753 755 756 757 759 759 761 762 762 763 764 766 767 768 770 771 772 773 775 777 778 778 779 779 780 782 783 784 785 787 788 789 791 792 794 795 797 798 799 800 801 801 803 804 805 806 807 809 810 812 813 815 816
786 787 788 788 788 785 788 788 787 797 794 777 766 762 769 768 742 726 728 724 719 719 724 728 726 727 729 730 733 736 738 739 739 740 740 741 742 743 744 745 747 748 749 751 752 754 755 756 758 758 759 761 761 763 764 765 766 767 768 769 770 772 773 775 775 775 776 777 778 779 780 782 783 783 785 786 787 788 790 792 793 795 796 798 799 800 800 801 802 803 805 806 807 809 810 811 813
788 790 792 794 790 785 789 788 790 801 792 767 758 754 761 767 744 723 721 715 712 716 722 725 725 726 728 729 732 734 736 738 739 740 741 742 743 743 744 745 746 748 748 750 751 753 754 756 757 758 759 760 761 762 762 763 764 765 766 768 769 770 772 773 773 773 774 775 775 777 778 779 780 781 781 782 783 784 786 788 789 791 793 794 796 797 798 799 800 801 801 802 803 805 806 808 809
792 793 796 802 798 792 792 789 787 792 780 759 751 750 755 753 733 721 718 712 711 711 713 717 719 722 724 727 730 732 734 735 736 738 739 740 741 742 743 744 745 746 746 748 750 752 754 755 757 758 759 760 760 761 761 761 762 763 764 765 766 768 769 770 771 772 772 772 773 775 775 776 776 777 777 777 778 780 782 783 785 786 788 789 791 793 795 796 797 797 798 798 799 801 802 804 805
794 793 795 801 801 799 795 785 778 776 766 754 750 753 756 746 727 718 715 711 711 709 708 711 714 718 722 724 727 729 732 733 734 735 736 737 739 740 742 742 743 744 745 747 749 751 753 754 756 756 757 758 758 758 759 759 760 761 762 763 764 766 766 767 768 769 770 770 770 771 771 772 772 772 772 773 775 777 779 779 781 782 783 785 787 788 790 792 793 794 794 794 795 797 798 800 801
788 784 788 792 790 792 792 783 779 774 765 758 756 757 756 746 728 715 711 711 711 710 709 711 714 718 722 723 725 728 730 731 732 732 733 735 737 738 740 741 742 742 743 746 749 751 752 753 753 753 754 755 755 756 756 756 756 757 758 759 761 762 763 764 765 765 766 767 767 767 767 768 768 768 770 771 772 774 775 777 778 779 780 781 782 784 786 787 788 789 790 791 792 793 795 796 797
781 777 785 789 782 783 786 782 777 777 776 769 761 754 742 731 721 712 712 713 712 713 713 714 717 718 721 723 723 727 729 729 730 731 733 735 735 737 738 739 740 741 742 745 748 749 750 750 751 751 751 752 753 754 754 754 755 755 756 756 757 758 759 760 761 762 763 764 764 764 764 765 765 766 767 768 769 770 772 774 774 775 776 777 778 779 781 782 783 784 785 787 788 789 790 791 793
781 781 785 783 776 777 784 783 774 777 784 771 756 752 740 730 723 712 712 716 715 717 717 716 718 718 720 721 722 726 727 727 729 731 733 734 734 736 737 738 740 740 741 744 746 747 748 749 749 750 750 751 752 752 752 753 754 754 754 755 755 755 756 756 757 759 760 761 762 762 762 763 763 764 764 765 766 767 768 769 770 771 772 773 774 776 777 779 780 781 781 782 784 785 787 788 789
783 786 783 778 777 778 783 788 782 781 783 765 750 752 745 740 734 717 714 720 720 719 718 717 717 718 720 720 723 727 727 729 731 732 733 733 733 735 736 738 739 739 741 743 745 746 747 748 748 748 749 749 749 750 750 751 752 752 752 753 753 754 754 755 756 757 758 759 760 760 760 760 760 761 761 762 763 763 764 765 766 767 768 769 770 772 774 776 777 778 778 778 780 781 783 784 785
781 783 782 781 784 783 782 789 790 785 780 764 751 749 744 740 734 722 719 721 720 720 719 719 720 720 720 721 726 729 729 732 733 732 734 733 734 735 736 738 738 739 741 743 745 746 747 748 748 748 749 749 749 750 750 750 750 751 751 751 752 752 753 754 754 755 756 756 756 757 757 757 757 757 758 758 759 759 760 761 761 763 764 765 766 767 769 771 773 774 774 774 775 777 778 779 781
783 784 784 784 786 784 783 788 789 784 778 767 757 751 742 731 725 722 720 718 718 720 720 720 722 722 723 724 727 729 730 732 733 734 735 735 736 736 736 737 738 739 743 744 746 747 748 749 749 749 750 750 750 750 750 750 750 750 750 750 750 750 750 751 751 752 752 752 752 753 753 753 754 754 754 755 755 756 756 757 758 759 760 761 762 763 764 767 769 769 770 771 771 772 773 774 776
783 786 786 786 787 788 789 787 782 779 777 770 765 757 738 722 717 718 718 718 719 719 719 723 726 726 726 726 727 730 731 733 734 734 735 735 736 736 736 737 739 742 745 747 748 749 749 750 750 750 750 750 750 749 749 749 749 749 748 748 748 748 748 748 747 748 747 747 748 748 749 750 750 751 751 751 751 752 753 754 755 756 756 757 757 758 760 762 764 765 766 767 768 768 769 770 772
770 776 777 778 780 783 788 784 773 775 776 767 765 759 734 716 714 715 716 720 723 723 726 729 730 728 729 729 729 730 731 732 734 735 736 737 737 737 738 741 744 748 749 750 750 750 750 751 750 750 750 750 749 749 749 748 748 747 746 745 745 745 745 745 744 744 744 744 744 745 746 748 747 748 748 748 748 749 751 752 752 753 753 753 754 754 756 758 759 761 762 763 764 765 765 766 768